GW0378 Weather Reports


time (UTC)temp
F
wind
direction
speed
knots
gust
knots
rain 1hr
in
rain 24hr
in
rain mn
in
humidity
%
barometer
mb
20260906133342 57 100 5.2 12.2 0.00 0.57 0.57 81 1016.1
20260906132837 56 132 7.0 7.8 0.00 0.57 0.57 82 1016.1
20260906132332 57 116 7.8 13.0 0.00 0.57 0.57 81 1015.8
20260906131828 57 137 3.5 10.4 0.00 0.57 0.57 81 1016.1
20260906131323 56 99 7.8 10.4 0.00 0.57 0.57 81 1016.2
20260906130819 55 129 4.3 8.7 0.00 0.57 0.57 87 1016.1
20260906130313 55 97 6.1 8.7 0.00 0.57 0.57 87 1016.0
20260906125812 56 116 5.2 9.6 0.00 0.57 0.57 85 1016.4
20260906125309 56 143 4.3 11.3 0.00 0.57 0.57 84 1016.5
20260906124804 57 120 5.2 12.2 0.00 0.57 0.57 83 1016.4
20260906124300 57 71 6.1 9.6 0.00 0.57 0.57 82 1017.0
20260906123759 56 108 5.2 13.0 0.00 0.57 0.57 84 1016.8
20260906123254 56 127 7.0 9.6 0.00 0.57 0.57 84 1016.6
20260906122754 56 119 4.3 9.6 0.00 0.57 0.57 85 1016.9
20260906122249 56 127 5.2 11.3 0.00 0.57 0.57 84 1016.8
20260906121746 55 114 4.3 7.8 0.00 0.57 0.57 87 1016.7
20260906121242 55 144 2.6 11.3 0.00 0.57 0.57 88 1016.7
20260906120737 55 114 4.3 7.0 0.00 0.57 0.57 89 1016.8
20260906120234 55 125 2.6 2.6 0.00 0.57 0.57 89 1017.2
20260906115729 55 90 2.6 3.5 0.00 0.57 0.57 88 1016.7
20260906115224 56 103 0.0 2.6 0.00 0.57 0.57 87 1017.1
20260906114723 55 90 0.9 1.7 0.00 0.57 0.57 88 1017.0
20260906114218 55 154 0.0 0.0 0.00 0.57 0.57 87 1017.2
20260906113714 56 188 0.0 1.7 0.00 0.57 0.57 87 1017.4
20260906113213 57 201 0.0 2.6 0.00 0.57 0.57 84 1017.0
20260906112713 57 236 1.7 3.5 0.00 0.57 0.57 84 1017.0
20260906112210 56 303 1.7 2.6 0.00 0.57 0.57 87 1016.9
20260906111709 56 279 11.3 11.3 0.00 0.57 0.57 86 1017.5
20260906111203 56 243 2.6 6.1 0.00 0.57 0.57 87 1016.9
20260906110659 55 32 5.2 6.1 0.00 0.57 0.57 89 1015.7
20260906110154 55 30 1.7 7.8 0.00 0.57 0.57 88 1017.4
20260906105648 55 99 3.5 4.3 0.00 0.57 0.57 90 1017.7
20260906105144 56 13 2.6 2.6 0.00 0.57 0.57 89 1017.8
20260906104643 56 252 2.6 8.7 0.00 0.57 0.57 88 1017.7
20260906104137 58 250 5.2 7.0 0.00 0.57 0.57 81 1017.5
20260906103635 57 175 1.7 5.2 0.00 0.57 0.57 81 1016.8
20260906103131 55 70 3.5 10.4 0.00 0.57 0.57 91 1016.2
20260906102625 55 102 5.2 13.0 0.00 0.57 0.57 93 1016.9
20260906102120 55 90 1.7 2.6 0.00 0.57 0.57 92 1018.3
20260906101614 55 240 3.5 9.6 0.00 0.57 0.57 92 1018.7
20260906101109 55 229 5.2 7.0 0.00 0.57 0.57 93 1018.3
20260906100605 56 210 4.3 6.1 0.00 0.57 0.57 90 1017.5
20260906100104 56 270 0.9 11.3 0.00 0.57 0.57 87 1017.2
20260906095604 55 275 1.7 5.2 0.00 0.57 0.57 90 1017.2
20260906095100 55 111 13.0 16.5 0.00 0.57 0.57 89 1016.2
20260906094558 55 128 11.3 26.1 0.00 0.57 0.57 91 1016.2
20260906094054 55 105 12.2 17.4 0.00 0.57 0.57 95 1017.2
20260906093550 55 220 2.6 7.0 0.00 0.57 0.57 95 1019.2
20260906093045 55 237 7.0 8.7 0.07 0.57 0.57 95 1018.7
20260906092541 55 294 1.7 6.1 0.14 0.56 0.56 95 1017.4
20260906092035 55 122 5.2 15.6 0.14 0.56 0.56 95 1017.6
20260906091530 55 159 2.6 10.4 0.09 0.54 0.54 95 1018.0
20260906091027 55 110 4.3 8.7 0.05 0.53 0.53 95 1018.0
20260906090522 55 185 0.0 20.0 0.02 0.52 0.52 95 1018.3
20260906090017 55 119 7.8 19.1 0.07 0.52 0.52 96 1018.2
20260906085516 55 165 1.7 12.2 0.07 0.52 0.52 96 1017.8
20260906085015 55 177 2.6 15.6 0.21 0.51 0.51 96 1017.8
20260906084510 55 145 3.5 12.2 0.45 0.50 0.50 96 1018.1
20260906084009 55 98 4.3 12.2 0.50 0.48 0.48 96 1018.5
20260906083505 55 72 0.0 3.5 0.45 0.43 0.43 96 1019.5
20260906083004 55 90 0.9 1.7 0.31 0.39 0.39 96 1020.0
20260906082459 55 128 4.3 5.2 0.12 0.35 0.35 96 1019.6
20260906081955 55 154 0.9 2.6 0.07 0.34 0.34 95 1019.1
20260906081450 55 100 3.5 3.5 0.12 0.33 0.33 95 1019.1
20260906080946 55 85 0.0 2.6 0.24 0.33 0.33 95 1019.2
20260906080443 55 90 1.7 2.6 0.14 0.31 0.31 94 1019.0
20260906075943 56 186 2.6 3.5 0.00 0.29 0.29 94 1019.0
20260906075437 56 313 9.6 9.6 0.00 0.29 0.29 94 1019.0
20260906074932 55 180 0.0 2.6 0.00 0.29 0.29 95 1018.2
20260906074427 55 180 0.0 0.9 0.00 0.29 0.29 94 1017.7
20260906073926 55 128 2.6 2.6 0.00 0.29 0.29 94 1017.1
20260906073421 55 139 1.7 4.3 0.00 0.29 0.29 94 1017.1
20260906072917 55 115 0.0 3.5 0.00 0.29 0.29 93 1017.4
20260906072412 55 90 3.5 3.5 0.00 0.29 0.29 93 1017.1
20260906071908 55 137 4.3 12.2 0.00 0.29 0.29 93 1016.7
20260906071404 55 139 4.3 13.9 0.00 0.29 0.29 92 1016.9
20260906070859 55 115 6.1 13.0 0.00 0.29 0.29 92 1016.9
20260906070355 55 154 2.6 9.6 0.00 0.29 0.29 93 1016.8
20260906065850 55 133 2.6 19.1 0.00 0.29 0.29 94 1016.9
20260906065344 54 161 1.7 11.3 0.12 0.29 0.29 95 1016.8
20260906064840 54 116 8.7 17.4 0.52 0.29 0.29 95 1016.8
20260906064337 54 152 1.7 15.6 1.49 0.27 0.27 94 1016.5
20260906063831 56 79 7.8 24.3 1.21 0.20 0.20 92 1016.2
20260906063326 59 74 5.2 7.0 0.12 0.02 0.02 85 1017.9
20260906062822 59 120 0.0 2.6 0.00 0.00 0.00 83 1018.9
20260906062321 59 189 4.3 5.2 0.00 0.00 0.00 83 1018.0
20260906061816 59 172 0.0 2.6 0.00 0.00 0.00 81 1017.1
20260906061312 60 341 1.7 4.3 0.00 0.00 0.00 79 1017.2
20260906060807 60 319 0.0 2.6 0.00 0.00 0.00 78 1017.1
20260906060305 60 90 0.0 1.7 0.00 0.00 0.00 79 1017.5
20260906055800 60 16 0.0 1.7 0.00 0.00 0.00 79 1017.1
20260906055255 60 90 1.7 3.5 0.00 0.00 0.00 78 1017.2
20260906054750 60 73 1.7 4.3 0.00 0.00 0.00 77 1017.4
20260906054246 60 69 0.0 2.6 0.00 0.00 0.00 78 1017.2
20260906053743 60 45 1.7 2.6 0.00 0.00 0.00 78 1017.7
20260906053238 59 180 0.0 1.7 0.00 0.00 0.00 80 1017.7
20260906052733 60 162 0.0 1.7 0.00 0.00 0.00 79 1017.4
20260906052229 59 166 0.9 0.9 0.00 0.00 0.00 80 1017.6
20260906051726 59 96 0.0 2.6 0.00 0.00 0.00 79 1017.5
20260906051225 59 154 0.9 2.6 0.00 0.00 0.00 81 1017.2
20260906050721 59 29 0.0 0.9 0.00 0.00 0.00 81 1017.4
20260906050216 59 84 0.9 2.6 0.00 0.00 0.00 82 1017.4
20260906045714 59 168 0.9 1.7 0.00 0.00 0.00 81 1017.4
20260906045210 59 154 0.9 2.6 0.00 0.00 0.00 80 1017.2
20260906044706 60 8 0.0 1.7 0.00 0.00 0.00 78 1017.2
20260906044200 61 16 1.7 1.7 0.00 0.00 0.00 75 1017.4
20260906043656 61 111 0.9 2.6 0.00 0.00 0.00 74 1017.6
20260906043152 61 141 2.6 5.2 0.00 0.00 0.00 75 1017.4
20260906042651 61 119 1.7 4.3 0.00 0.00 0.00 74 1017.4
20260906042145 61 127 2.6 4.3 0.00 0.00 0.00 75 1017.6
20260906041641 61 119 1.7 3.5 0.00 0.00 0.00 76 1017.6
20260906041136 61 97 0.9 5.2 0.00 0.00 0.00 76 1017.9
20260906040631 60 72 2.6 4.3 0.00 0.00 0.00 76 1017.8
20260906040127 60 135 1.7 3.5 0.00 0.00 0.00 76 1017.2
20260906035622 60 139 1.7 3.5 0.00 0.00 0.00 76 1017.7
20260906035118 60 148 1.7 4.3 0.00 0.00 0.00 75 1017.6
20260906034618 61 120 0.9 1.7 0.00 0.00 0.00 75 1017.4
20260906034112 61 148 1.7 2.6 0.00 0.00 0.00 74 1017.6
20260906033608 61 106 0.0 0.9 0.00 0.00 0.00 75 1017.5
20260906033103 62 105 1.7 2.6 0.00 0.00 0.00 74 1017.6
20260906032559 62 120 0.0 0.0 0.00 0.00 0.00 71 1017.2
20260906032054 63 188 0.0 0.0 0.00 0.00 0.00 69 1017.5
20260906031549 63 120 0.0 1.7 0.00 0.00 0.00 68 1017.1
20260906031045 64 83 0.9 1.7 0.00 0.00 0.00 68 1017.1
20260906030544 64 288 1.7 2.6 0.00 0.00 0.00 66 1016.9
20260906030043 64 249 2.6 2.6 0.00 0.00 0.00 67 1017.1
20260906025538 64 0 0.9 2.6 0.00 0.00 0.00 67 1016.8
20260906025036 64 122 4.3 7.0 0.00 0.00 0.00 67 1016.8
20260906024532 65 90 1.7 9.6 0.00 0.00 0.00 66 1016.6
20260906024032 65 129 2.6 10.4 0.00 0.00 0.00 65 1016.7
20260906023528 65 203 0.0 5.2 0.00 0.00 0.00 64 1016.6
20260906023022 65 79 1.7 6.1 0.00 0.00 0.00 63 1016.4
20260906022518 65 29 0.0 2.6 0.00 0.00 0.00 63 1016.6
20260906022013 65 160 0.9 1.7 0.00 0.00 0.00 63 1016.6
20260906021508 65 90 1.7 4.3 0.00 0.00 0.00 63 1016.1
20260906021002 66 97 2.6 7.8 0.00 0.00 0.00 63 1016.4
20260906020456 66 105 1.7 4.3 0.00 0.00 0.00 63 1016.7
20260906015955 66 194 0.9 7.0 0.00 0.00 0.00 63 1016.4
20260906015455 66 90 0.0 4.3 0.00 0.00 0.00 64 1016.4
20260906014950 67 114 2.6 4.3 0.00 0.00 0.00 63 1016.4
20260906014449 67 103 0.0 6.1 0.00 0.00 0.00 63 1015.9
20260906013946 67 67 2.6 9.6 0.00 0.00 0.00 63 1015.8
20260906013441 68 54 0.0 2.6 0.00 0.00 0.00 62 1015.8
20260906012937 68 98 0.0 10.4 0.00 0.00 0.00 61 1015.7
20260906012431 69 102 2.6 6.1 0.00 0.00 0.00 59 1015.7
20260906011930 69 102 4.3 5.2 0.00 0.00 0.00 57 1015.7
20260906011426 70 168 0.0 0.9 0.00 0.00 0.00 55 1016.0
20260906010921 70 203 0.0 1.7 0.00 0.00 0.00 53 1015.8
20260906010417 71 115 0.0 3.5 0.00 0.00 0.00 51 1015.7
20260906005913 71 0 0.9 3.5 0.00 0.00 0.00 49 1015.7
20260906005412 71 90 0.0 3.5 0.00 0.00 0.00 50 1015.8
20260906004910 71 259 0.0 5.2 0.00 0.00 0.00 50 1015.6
20260906004405 71 261 3.5 4.3 0.00 0.00 0.00 49 1015.5
20260906003901 72 343 3.5 5.2 0.00 0.00 0.00 49 1015.7
20260906003356 72 270 1.7 5.2 0.00 0.00 0.00 49 1015.8
20260906002851 72 264 1.7 6.1 0.00 0.00 0.00 49 1015.8
20260906002350 72 263 3.5 6.1 0.00 0.00 0.00 49 1015.5
20260906001846 73 254 3.5 6.1 0.00 0.00 0.00 47 1015.5
20260906001342 73 279 4.3 7.8 0.00 0.00 0.00 47 1015.5
20260906000836 75 240 1.7 7.8 0.00 0.00 0.00 47 1015.5
20260906000333 75 251 2.6 7.8 0.00 0.00 0.00 46 1015.4
20260905235831 75 279 3.5 4.3 0.00 0.00 0.00 48 1015.1
20260905235326 75 231 4.3 7.0 0.00 0.00 0.00 46 1015.2
20260905234821 75 36 1.7 3.5 0.00 0.00 0.00 45 1015.4
20260905234316 75 266 2.6 6.1 0.00 0.00 0.00 46 1015.2
20260905233811 75 270 2.6 7.8 0.00 0.00 0.00 46 1015.4
20260905233306 76 345 0.9 3.5 0.00 0.00 0.00 45 1015.1
20260905232805 75 292 2.6 5.2 0.00 0.00 0.00 45 1015.4
20260905232305 75 340 2.6 2.6 0.00 0.00 0.00 45 1015.1
20260905231757 75 35 0.0 4.3 0.00 0.00 0.00 48 1015.4
20260905231252 74 6 0.9 5.2 0.00 0.00 0.00 48 1015.2
20260905230748 74 3 2.6 3.5 0.00 0.00 0.00 47 1015.4
20260905230246 75 305 2.6 3.5 0.00 0.00 0.00 47 1015.5
20260905225745 74 29 0.0 3.5 0.00 0.00 0.00 47 1015.6
20260905225241 75 0 0.9 4.3 0.00 0.00 0.00 47 1015.7
20260905224739 75 29 2.6 4.3 0.00 0.00 0.00 48 1016.0
20260905224236 74 331 0.9 3.5 0.00 0.00 0.00 48 1015.6
20260905223731 74 317 3.5 3.5 0.00 0.00 0.00 48 1015.7
20260905223228 73 253 4.3 7.0 0.00 0.00 0.00 49 1016.0
20260905222724 74 296 2.6 5.2 0.00 0.00 0.00 47 1015.9
20260905222223 74 114 0.0 3.5 0.00 0.00 0.00 47 1015.9
20260905221719 74 54 2.6 4.3 0.00 0.00 0.00 49 1016.1
20260905221215 73 6 0.9 3.5 0.00 0.00 0.00 49 1016.4
20260905220711 73 114 0.9 3.5 0.00 0.00 0.00 48 1016.2
20260905220207 73 282 2.6 4.3 0.00 0.00 0.00 50 1016.2
20260905215706 72 260 3.5 7.8 0.00 0.00 0.00 51 1016.4
20260905215202 71 301 1.7 4.3 0.00 0.00 0.00 50 1016.5
20260905214658 71 15 0.0 4.3 0.00 0.00 0.00 50 1016.5
20260905214153 73 118 4.3 4.3 0.00 0.00 0.00 51 1016.8
20260905213648 72 195 0.9 3.5 0.00 0.00 0.00 50 1016.8
20260905213144 73 109 0.0 2.6 0.00 0.00 0.00 51 1016.8
20260905212639 70 298 2.6 6.1 0.00 0.00 0.00 52 1016.8
20260905212138 70 327 2.6 4.3 0.00 0.00 0.00 51 1017.1
20260905211633 70 262 5.2 6.1 0.00 0.00 0.00 52 1016.9
20260905211128 72 11 0.0 1.7 0.00 0.00 0.00 51 1017.0
20260905210625 71 287 1.7 2.6 0.00 0.00 0.00 53 1017.2
20260905210119 70 282 2.6 3.5 0.00 0.00 0.00 53 1017.1
20260905205619 71 121 2.6 5.2 0.00 0.00 0.00 55 1017.2
20260905205118 70 307 1.7 4.3 0.00 0.00 0.00 53 1017.4
20260905204618 71 322 2.6 4.3 0.00 0.00 0.00 52 1017.6
20260905204114 69 7 3.5 3.5 0.00 0.00 0.00 55 1017.7
20260905203613 68 266 0.0 4.3 0.00 0.00 0.00 56 1017.6
20260905203109 69 236 1.7 4.3 0.00 0.00 0.00 56 1017.7
20260905202604 69 291 3.5 5.2 0.00 0.00 0.00 57 1017.7
20260905202059 69 315 1.7 3.5 0.00 0.00 0.00 56 1017.7
20260905201555 68 357 2.6 7.8 0.00 0.00 0.00 59 1017.7
20260905201054 68 105 2.6 3.5 0.00 0.00 0.00 60 1017.8
20260905200550 68 353 0.9 4.3 0.00 0.00 0.00 61 1017.9
20260905200050 66 257 1.7 3.5 0.00 0.00 0.00 60 1017.9
20260905195544 66 297 0.9 2.6 0.00 0.00 0.00 60 1018.2
20260905195040 66 304 1.7 1.7 0.00 0.00 0.00 61 1018.2
20260905194539 66 66 1.7 2.6 0.00 0.00 0.00 64 1018.1
20260905194038 66 90 0.9 2.6 0.00 0.00 0.00 62 1018.0
20260905193533 65 169 0.0 3.5 0.00 0.00 0.00 62 1017.8
20260905193029 66 279 0.0 1.7 0.00 0.00 0.00 64 1018.0
20260905192524 65 6 0.9 2.6 0.00 0.00 0.00 66 1018.0
20260905192020 65 255 0.0 2.6 0.00 0.00 0.00 65 1018.2
20260905191519 65 0 0.0 2.6 0.00 0.00 0.00 66 1018.1
20260905191018 64 12 1.7 2.6 0.00 0.00 0.00 68 1018.2
20260905190516 64 332 1.7 2.6 0.00 0.00 0.00 67 1018.2
20260905190010 64 263 2.6 3.5 0.00 0.00 0.00 66 1018.1
20260905185504 63 267 3.5 4.3 0.00 0.00 0.00 67 1018.1
20260905185003 63 291 0.9 2.6 0.00 0.00 0.00 70 1018.5
20260905184459 63 300 2.6 4.3 0.00 0.00 0.00 69 1018.7
20260905183957 62 241 1.7 4.3 0.00 0.00 0.00 70 1018.5
20260905183457 62 248 1.7 5.2 0.00 0.00 0.00 73 1018.7
20260905182951 62 273 3.5 4.3 0.00 0.00 0.00 73 1018.7
20260905182451 63 275 1.7 3.5 0.00 0.00 0.00 72 1018.8
20260905181946 61 209 1.7 3.5 0.00 0.00 0.00 74 1018.9
20260905181441 61 189 2.6 2.6 0.00 0.00 0.00 74 1018.9
20260905180940 61 331 0.9 2.6 0.00 0.00 0.00 76 1018.9
20260905180435 60 264 0.9 2.6 0.00 0.00 0.00 77 1019.0
20260905175930 60 280 1.7 2.6 0.00 0.00 0.00 75 1019.1
20260905175429 60 251 2.6 4.3 0.00 0.00 0.00 76 1019.3
20260905174925 60 211 2.6 4.3 0.00 0.00 0.00 77 1019.1
20260905174421 60 278 1.7 4.3 0.00 0.00 0.00 76 1019.1
20260905173916 59 289 0.9 4.3 0.00 0.00 0.00 78 1019.1
20260905173412 59 255 2.6 5.2 0.00 0.00 0.00 77 1019.1
20260905172907 59 245 1.7 6.1 0.00 0.00 0.00 79 1019.5
20260905172404 59 326 4.3 4.3 0.00 0.00 0.00 79 1019.0
20260905171901 58 336 1.7 4.3 0.00 0.00 0.00 80 1019.3
20260905171357 58 83 0.0 4.3 0.00 0.00 0.00 81 1019.6
20260905170854 57 206 2.6 2.6 0.00 0.00 0.00 81 1019.2
20260905170349 57 322 5.2 5.2 0.00 0.00 0.00 82 1019.2
20260905165848 57 328 1.7 3.5 0.00 0.00 0.00 82 1019.7
20260905165343 56 354 0.9 3.5 0.00 0.00 0.00 83 1019.3
20260905164838 55 306 0.9 1.7 0.00 0.00 0.00 84 1019.3
20260905164333 55 277 0.9 1.7 0.00 0.00 0.00 85 1019.6
20260905163829 55 180 1.7 2.6 0.00 0.00 0.00 85 1019.5
20260905163325 55 286 0.9 4.3 0.00 0.00 0.00 85 1019.7
20260905162821 56 304 1.7 1.7 0.00 0.00 0.00 86 1019.6
20260905162320 55 299 2.6 3.5 0.00 0.00 0.00 85 1019.6
20260905161815 54 328 2.6 4.3 0.00 0.00 0.00 86 1019.7
20260905161314 55 246 1.7 2.6 0.00 0.00 0.00 88 1019.6
20260905160812 53 246 0.0 1.7 0.00 0.00 0.00 90 1019.5
20260905160307 53 262 0.0 1.7 0.00 0.00 0.00 90 1019.8
20260905155802 52 172 0.0 2.6 0.00 0.00 0.00 91 1019.6
20260905155301 52 253 2.6 2.6 0.00 0.00 0.00 91 1019.5
20260905154755 52 297 0.0 0.9 0.00 0.00 0.00 92 1019.7
20260905154251 51 24 1.7 2.6 0.00 0.00 0.00 92 1019.6
20260905153746 51 294 0.0 2.6 0.00 0.00 0.00 93 1019.6
20260905153242 51 45 1.7 2.6 0.00 0.00 0.00 94 1019.5
20260905152736 51 0 0.9 2.6 0.00 0.00 0.00 94 1019.7
20260905152231 51 311 0.0 1.7 0.00 0.00 0.00 95 1019.6
20260905151731 51 254 0.0 1.7 0.00 0.00 0.00 95 1019.8
20260905151227 51 36 2.6 2.6 0.00 0.00 0.00 95 1019.5
20260905150726 51 331 0.0 1.7 0.00 0.00 0.00 95 1019.5
20260905150226 51 11 0.0 2.6 0.00 0.00 0.00 95 1019.3
20260905145724 51 258 0.9 2.6 0.00 0.00 0.00 95 1019.1
20260905145219 51 14 0.0 1.7 0.00 0.00 0.00 95 1019.7
20260905144717 51 188 0.0 0.9 0.00 0.00 0.00 95 1019.5
20260905144212 51 294 0.0 1.7 0.00 0.00 0.00 94 1019.5
20260905143711 51 21 1.7 2.6 0.00 0.00 0.00 94 1019.6
20260905143206 51 240 0.0 1.7 0.00 0.00 0.00 94 1019.3
20260905142704 51 294 0.9 2.6 0.00 0.00 0.00 94 1019.0
20260905142159 51 12 0.0 1.7 0.00 0.00 0.00 94 1019.3
20260905141654 51 248 0.0 1.7 0.00 0.00 0.00 94 1019.1
20260905141150 51 259 4.3 4.3 0.00 0.00 0.00 94 1019.5
20260905140645 51 239 1.7 1.7 0.00 0.00 0.00 94 1019.0
20260905140145 51 225 2.6 2.6 0.00 0.00 0.00 93 1018.9
20260905135640 52 0 2.6 2.6 0.00 0.00 0.00 92 1018.9
20260905135135 51 49 1.7 3.5 0.00 0.00 0.00 92 1018.1
20260905134624 51 98 2.6 3.5 0.00 0.00 0.00 92 1018.7
20260905134123 51 330 2.6 2.6 0.00 0.00 0.00 94 1019.3
20260905133619 50 57 0.9 3.5 0.00 0.00 0.00 95 1018.7